COSMOS 1275 DEB, 12672

Orbit data source: Space-Track

COSMOS 1275 DEB, 12672 is space debris in LEO originally from a launch on Thu, 04 Jun 1981 UTC launched from the Plesetsk Missile And Space Complex (PKMTR). Debris objects in space refer to the collection of defunct objects orbiting the Earth. Examples of debris include non-operational satellites, rocket bodies, and fragments generated from explosions, collisions, or faulty payload assembly.

Loading next visibility...
COSMOS 1275 DEB details
Identifier
12672, 1981-053AC
Orbit
LEO
Last TLE update10 hours ago
Origin
Flag of CISVMF (CIS)
ManufacturerUnknown
MissionSpacecraft
Bus & MotorUnknown
MassUnknown
Launch date (UTC)
1981-06-04 (44 years ago)
Launch vehicleUnknown
Launch site
Plesetsk Missile And Space Complex (PKMTR)
Object type
Payload
Rocket body
Debris
Shape & HBRUnknown
Radar Cross SectionMedium (>0.1 m² and <1 m²)

Expand to show TLE details & history

TLE from 10 hours ago
0 COSMOS 1275 DEB
1 12672U 81053AC  24361.10094115  .00001111  00000-0  99485-3 0  9994
2 12672  82.9421 214.7481 0028493 343.4134 131.5210 13.83346110183994
Epoch: 2024-12-26T02:25Z
Definitive object data (Epoch: 2024-12-26T02:25:21.315Z)
Latitude64.00094°
Longitude-111.3038°
Altitude976.951 km
Speed7.362 km/s
True Right ascension01h 20m 28s
True Declination63° 52' 09"
Sunlit
Object was in daylight at TLE epoch
Visualization TLE readout
Latitude54.70514°
Longitude93.02677°
Altitude954.917 km
Speed7.383 km/s
Apparent Right ascension20h 04m 30s
Apparent Declination27° 38' 16"
Sunlit
Object is in daylight
Visualization observer readout
Local Sidereal Time11:54:26
Azimuth48.483° ENE
Elevation-3.874°
Doppler factor1
Orbital elements
Apogee altitude970.057 km
Perigee altitude928.302 km
Semi-major axis7,327.317 km
Eccentricity0.0028493
Inclination82.9421°
RAAN214.7481°
Arg. of periapsis343.4134°
True anomaly131.76488°
Mean anomaly131.521°
Eccentric anomaly131.643°
Mean motion3.4604 °/min
BSTAR0.00099485
Orbital period104.03 mins
Loading maneuver chart data...
Loading historical data...
Loading historical data...
Loading historical data...
Loading historical data...
Loading historical data...
Loading historical data...
Loading historical data...

COSMOS 1275 DEB Visibility forecast

Observer location: undefined°, undefined

Span
Click to sort rows by Start time (UTC) header in descending order
Start Az.
Max El. time (UTC)
Max El. Az.
Max El.
End time (UTC)
End Az.
8 mins2024-12-26 14:08:55.091Z131.461° SE2024-12-26 14:12:55.091Z82.152° E23.021°2024-12-26 14:16:55.091Z36.337° NE
10 mins2024-12-26 15:52:55.091Z216.935° SW2024-12-26 15:56:55.091Z273.183° WNW34.59°2024-12-26 16:02:55.091Z353.773° N
6 mins2024-12-27 01:02:55.091Z40.026° NE2024-12-27 01:05:55.091Z76.056° E18.775°2024-12-27 01:08:55.091Z108.554° ESE
10 mins2024-12-27 02:45:55.091Z342.649° N2024-12-27 02:50:55.091Z259.775° W40.856°2024-12-27 02:55:55.091Z191.433° SSW
|